Change the Weather History Date:

Saturday, August 3, 2013

  Actual Average Record
Temperature  
Mean Temperature 90 °F 84 °F  
Max Temperature 102 °F 96 °F 109 °F (1943)
Min Temperature 78 °F 72 °F 59 °F (1971)
Degree Days  
Heating Degree Days 0 0  
Month to date heating degree days 0 0  
Since 1 June heating degree days 0 0  
Since 1 July heating degree days 0 0  
Cooling Degree Days 25 19  
Month to date cooling degree days 70 57  
Year to date cooling degree days 1781 1544  
Since 1 June cooling degree days 1185 1084  
Growing Degree Days 40 (Base 50)    
Moisture  
Dew Point 58 °F    
Average Humidity 40    
Maximum Humidity 58    
Minimum Humidity 21    
Precipitation  
Precipitation 0.00 in 0.06 in 1.61 in (1920)
Month to date precipitation 0.00 0.16  
Year to date precipitation 10.95 11.97  
Sea Level Pressure  
Sea Level Pressure 29.89 in    
Wind  
Wind Speed 10 mph (South)    
Max Wind Speed 20 mph    
Max Gust Speed 25 mph    
Visibility 10 miles    
Events      
T = Trace of Precipitation, MM = Missing Value Source: NWS Daily Summary

Daily Weather History Graph

Daily Weather History Graph

Search for Another Location

Airport or City:

Trip Planner

Search our weather history database for the weather conditions in past years. The results will help you decide how hot, cold, wet, or windy it might be!

Date:

Astronomy

Aug. 03, 2013 Rise Set
Actual Time 7:00 AM CDT 8:35 PM CDT
Civil Twilight 6:33 AM CDT 9:02 PM CDT
Nautical Twilight 6:02 AM CDT 9:33 PM CDT
Astronomical Twilight 5:29 AM CDT 10:06 PM CDT
Moon 4:13 AM CDT (8/3) 6:17 PM CDT (8/3)
Length of Visible Light 14h 28m
Length of Day
13h 35m
Waning Crescent, 9% of the Moon is Illuminated
Aug 3
Waning Crescent
Aug 6
New
Aug 14
First Quarter
Aug 20
Full
Aug 28
Last Quarter

Hourly Weather History & Observations

Time (CDT) Temp. Heat Index Dew Point Humidity Pressure Visibility Wind Dir Wind Speed Gust Speed Precip Events Conditions
12:51 AM 82.9 °F 82.0 °F 55.0 °F 38% 29.88 in 10.0 mi South 6.9 mph - N/A   Clear
1:51 AM 82.0 °F 81.4 °F 55.0 °F 39% 29.88 in 10.0 mi South 8.1 mph - N/A   Clear
2:51 AM 82.0 °F 81.7 °F 57.0 °F 42% 29.87 in 10.0 mi South 11.5 mph - N/A   Clear
3:51 AM 80.1 °F 80.6 °F 57.9 °F 47% 29.88 in 10.0 mi South 11.5 mph - N/A   Clear
4:51 AM 79.0 °F - 61.0 °F 54% 29.88 in 10.0 mi South 11.5 mph - N/A   Clear
5:51 AM 79.0 °F - 63.0 °F 58% 29.89 in 10.0 mi South 15.0 mph 20.7 mph N/A   Clear
6:51 AM 78.1 °F - 62.1 °F 58% 29.91 in 10.0 mi South 12.7 mph 23.0 mph N/A   Clear
7:51 AM 78.1 °F - 62.1 °F 58% 29.91 in 10.0 mi South 15.0 mph - N/A   Clear
8:51 AM 81.0 °F 81.9 °F 62.1 °F 52% 29.93 in 10.0 mi SSW 11.5 mph - N/A   Clear
9:51 AM 86.0 °F 86.1 °F 61.0 °F 43% 29.93 in 10.0 mi SSW 13.8 mph 21.9 mph N/A   Clear
10:51 AM 89.1 °F 89.3 °F 62.1 °F 40% 29.94 in 10.0 mi South 11.5 mph 20.7 mph N/A   Clear
11:51 AM 91.9 °F 92.5 °F 62.1 °F 37% 29.95 in 10.0 mi South 11.5 mph 17.3 mph N/A   Clear
12:51 PM 95.0 °F 95.2 °F 61.0 °F 32% 29.93 in 10.0 mi SSW 9.2 mph 18.4 mph N/A   Clear
1:51 PM 97.0 °F 96.5 °F 59.0 °F 28% 29.91 in 10.0 mi South 6.9 mph 17.3 mph N/A   Clear
2:51 PM 100.0 °F 98.3 °F 55.0 °F 22% 29.90 in 10.0 mi South 12.7 mph 18.4 mph N/A   Clear
3:51 PM 100.9 °F 99.1 °F 54.0 °F 21% 29.88 in 10.0 mi SE 10.4 mph 17.3 mph N/A   Clear
4:51 PM 100.0 °F 98.3 °F 55.0 °F 22% 29.86 in 10.0 mi SE 13.8 mph 18.4 mph N/A   Clear
5:51 PM 100.0 °F 98.8 °F 55.9 °F 23% 29.85 in 10.0 mi South 10.4 mph 17.3 mph N/A   Partly Cloudy
6:51 PM 99.0 °F 97.3 °F 55.0 °F 23% 29.85 in 10.0 mi ESE 10.4 mph - N/A   Clear
7:51 PM 98.1 °F 96.4 °F 55.0 °F 24% 29.86 in 10.0 mi SE 8.1 mph - N/A   Clear
8:51 PM 93.0 °F 90.8 °F 54.0 °F 27% 29.87 in 10.0 mi SE 5.8 mph - N/A   Clear
9:51 PM 90.0 °F 87.7 °F 54.0 °F 29% 29.88 in 10.0 mi SSE 5.8 mph - N/A   Clear
10:51 PM 90.0 °F 87.5 °F 53.1 °F 28% 29.91 in 10.0 mi SSE 8.1 mph - N/A   Clear
11:51 PM 88.0 °F 85.7 °F 53.1 °F 30% 29.92 in 10.0 mi SSE 8.1 mph - N/A   Clear